Regional Weather Roundup
Issued by NWS

Home | Current Version | Previous Version | Graphics & Text | Print | Product List | Glossary On
Versions: 1 2 3 4 5 6 7 8 9 10 11 12 13 14 15 16 17 18 19 20 21 22 23 24 25 26 27 28 29 30 31 32 33 34 35 36 37 38 39 40 41 42 43 44 45 46 47 48 49 50
000
ASUS43 KOAX 271310
RWRNE

WEATHER ROUNDUP FOR NEBRASKA
NATIONAL WEATHER SERVICE OMAHA NE
800 AM CDT FRI MAY 27 2016

NOTES: SATELLITE DATA IS BEING USED TO AUGMENT CLOUD COVER ABOVE
       12000 FEET.
       "FAIR" INDICATES FEW OR NO CLOUDS BELOW 12,000 FEET WITH NO
       SIGNIFICANT WEATHER AND/OR OBSTRUCTIONS TO VISIBILITY.

  * THESE STATIONS DO NOT REPORT WEATHER SUCH AS RAIN...SNOW OR FOG.

NEZ001>004-019>022-054>056-271400-
NEBRASKA PANHANDLE

CITY           SKY/WX    TMP DP  RH WIND       PRES   REMARKS
SCOTTSBLUFF    CLOUDY    53  47  79 N7        29.84R
ALLIANCE       CLOUDY    51  48  89 N8        29.82R
CHADRON        CLOUDY    49  46  90 SW5       29.85R
KIMBALL        CLOUDY    47  46  97 N13       29.85R
SIDNEY         RAIN      50  49  96 NE15      29.82R FOG
$$

NEZ057>060-069>072-079>082-271400-
SOUTHWEST NEBRASKA

CITY           SKY/WX    TMP DP  RH WIND       PRES   REMARKS
NORTH PLATTE   MOSUNNY   58  54  86 W6        29.78S
IMPERIAL       CLOUDY    54  52  93 N7        29.78R FOG
LEXINGTON      CLOUDY    57  55  92 CALM      29.78R
MCCOOK         CLOUDY    58  55  90 NE7       29.75R
OGALLALA       CLOUDY    56  53  90 E6        29.80R
$$

NEZ005>010-023>029-035>040-094-271400-
NORTH CENTRAL NEBRASKA

CITY           SKY/WX    TMP DP  RH WIND       PRES   REMARKS
VALENTINE      LGT RAIN  56  52  86 SW7       29.80R
AINSWORTH      CLOUDY    56  53  86 NE6       29.80R
BROKEN BOW     CLOUDY    59  55  87 N6        29.78R
O`NEILL        PTSUNNY   61  58  91 CALM      29.78R
ORD            SUNNY     61  55  81 W7        29.76R
THEDFORD       CLOUDY    56  54  93 CALM      29.81R
$$

NEZ041-046>049-061>064-073>077-083>087-271400-
SOUTH CENTRAL NEBRASKA

CITY           SKY/WX    TMP DP  RH WIND       PRES   REMARKS
GRAND ISLAND   CLOUDY    60  57  89 N8        29.77R
AURORA         CLOUDY    61  59  94 N9        29.77R
HASTINGS       CLOUDY    59  57  93 N10       29.74S
HEBRON         CLOUDY    59  58  95 NE6       29.74R
HOLDREGE       CLOUDY    57  55  94 N3        29.76R
KEARNEY *      CLOUDY    57  55  94 N9        29.76S
YORK           CLOUDY    59  59 100 NE6       29.76R
$$

NEZ011>018-030>034-042>045-271400-
NORTHEAST NEBRASKA

CITY           SKY/WX    TMP DP  RH WIND       PRES   REMARKS
NORFOLK        CLOUDY    60  57  89 SE8       29.77R
ALBION         CLOUDY    59  56  88 NE3       29.78R
BLAIR          SUNNY     63  60  90 NE10      29.76R
FREMONT        CLOUDY    64  59  85 NE7       29.75S
TEKAMAH        CLOUDY    63  59  87 E5        29.76R
WAYNE          CLOUDY    61  59  92 S7        29.78R
$$

NEZ050>053-065>068-078-088>093-271400-
SOUTHEAST NEBRASKA

CITY           SKY/WX    TMP DP  RH WIND       PRES   REMARKS
LINCOLN        CLOUDY    63  59  87 E9        29.75R
OMAHA EPPLEY   PTSUNNY   65  59  81 NE8       29.75R
BEATRICE       CLOUDY    61  58  91 NE6       29.75R
FALLS CITY     CLOUDY    64  60  87 CALM      29.72R
NEBRASKA CITY  CLOUDY    63  63 100 N9        29.74R
PLATTSMOUTH    CLOUDY    64  63  94 NE10      29.74S
$$

NEZ044-045-051>053-067-271400-
OMAHA AREA

CITY           SKY/WX    TMP DP  RH WIND       PRES   REMARKS
OMAHA EPPLEY   PTSUNNY   65  59  81 NE8       29.75R
BLAIR          SUNNY     63  60  90 NE10      29.76R
FREMONT        CLOUDY    64  59  85 NE7       29.75S
MILLARD        SUNNY     64  60  85 NE6       29.75R
OFFUTT AFB     CLOUDY    64  61  92 NE7       29.75R
PLATTSMOUTH    CLOUDY    64  63  94 NE10      29.74S
WAHOO          FAIR      63  60  89 E6        29.75R
$$



USA.gov is the U.S. government's official web portal to all federal, state and local government web resources and services.